#timestamp,LO_Frequency,Hit 
1503975615.1,286047000.8,N
1503975635.9,286046998.8,N
1503975655.7,286047000.6,N
1503975675.5,286047000.3,N
1503975695.3,286047000.0,N
1503975715.2,286047004.4,N
1503975735.0,286047001.9,N
1503975735.9,286047001.9,N
1503975755.7,286047001.0,N
1503975775.6,286046999.7,N
1503975795.4,286047002.3,N
1503975815.2,286047000.1,N
1503975835.1,286047000.9,N
1503975836.0,286047000.9,N
1503975855.8,286047004.3,N
1503975875.6,286047002.3,N
1503975895.5,286047002.7,N
1503975915.3,286047004.3,N
1503975935.1,286047002.6,N
1503975955.9,286047002.7,N
1503975975.7,286047001.0,N
1503975995.5,286046999.7,N
1503976015.3,286047002.1,N
1503976035.2,286047005.9,N
1503976055.0,286047004.1,N
1503976055.9,286047004.1,N
1503976075.7,286047001.5,N
1503976095.6,286047003.7,N
1503976115.4,286047003.2,N
1503976135.2,286047004.2,N
1503976155.1,286047003.3,N
1503976156.0,286047003.3,N
1503976175.8,286047004.0,N
1503976195.6,286047003.7,N
1503976215.5,286047005.5,P
1503976235.3,286047000.1,N
1503976255.1,286047002.3,N
1503976275.9,286047000.4,N
1503976295.7,286047002.2,N
1503976315.5,286047000.4,N
1503976335.4,286047000.4,N
1503976355.2,286047002.2,N
1503976375.0,286047005.9,P
1503976375.9,286047005.9,N
1503976395.8,286047002.6,N
1503976415.6,286046999.9,N
1503976435.4,286046998.5,N
1503976455.3,286046998.1,N
1503976475.1,286046998.1,N
1503976476.0,286046998.1,N
1503976495.8,286047000.7,N
1503976515.7,286046998.5,N
1503976535.5,286047000.2,N
1503976555.3,286047000.0,N
1503976575.1,286046999.8,N
1503976595.9,286047000.1,N
1503976615.7,286047001.2,N
1503976635.5,286046999.8,N
1503976655.4,286047002.6,N
1503976675.2,286047004.3,N
1503976695.0,286047000.6,N
1503976695.9,286047000.6,N
1503976715.8,286046998.1,N
1503976735.6,286047001.1,N
1503976755.4,286047003.6,N
1503976775.3,286047002.7,N
1503976795.1,286047002.4,N
1503976796.0,286047002.4,N
1503976815.8,286047002.5,N
1503976835.7,286047002.5,N
1503976855.5,286047002.7,N
1503976875.3,286047002.3,N
1503976895.1,286047002.2,N
1503976915.9,286047002.1,N
1503976935.7,286047001.3,N
1503976955.5,286047002.0,N
1503976975.4,286047001.9,N
1503976995.2,286047003.7,N
1503977015.0,286047004.7,N
1503977015.9,286047004.7,N
1503977035.8,286047005.1,P
1503977055.6,286047005.6,P
1503977075.4,286047003.9,N
1503977095.3,286047007.1,P
1503977115.1,286046999.9,N
1503977135.8,286046999.8,N
1503977155.7,286047000.5,N
1503977175.5,286047001.0,N
1503977195.3,286046999.8,N
1503977215.2,286046999.7,N
1503977235.9,286047001.2,N
1503977255.7,286046999.7,N
1503977275.6,286047004.1,N
1503977295.4,286047003.4,N
1503977315.2,286047005.6,N
1503977335.0,286047004.1,N
1503977336.0,286047004.1,N
1503977355.8,286047001.5,N
1503977375.6,286047002.5,N
1503977395.4,286047002.4,N
1503977415.3,286047004.3,N
1503977435.1,286047005.4,N
1503977455.8,286047006.4,N
1503977475.7,286047003.4,N
1503977495.5,286047003.9,N
1503977515.3,286047002.4,N
1503977535.2,286046999.9,N
1503977555.9,286046998.2,N
1503977575.7,286047000.2,N
1503977595.6,286047004.4,N
1503977615.4,286047001.8,N
1503977635.2,286047003.0,N
1503977655.0,286047005.7,N
1503977655.9,286047005.7,N
1503977675.8,286047007.8,P
1503977695.6,286047007.5,N
1503977715.5,286047004.0,N
1503977735.3,286047005.8,N
1503977755.1,286047004.1,N
1503977775.8,286047001.7,N
1503977795.7,286047001.4,N
1503977815.5,286047002.6,N
1503977835.3,286047002.0,N
1503977855.2,286047002.0,N
1503977875.9,286047004.7,N
1503977895.7,286047004.6,N
1503977915.6,286047005.9,N
1503977935.4,286047005.5,N
1503977955.2,286047004.1,N
1503977975.1,286047004.6,N
1503977976.0,286047004.6,N
1503977995.8,286047005.1,N
1503978015.6,286047007.5,P
1503978035.5,286047004.0,N
1503978055.3,286047002.3,N
1503978075.1,286047001.2,N
1503978095.9,286047003.0,N
1503978115.7,286047005.5,N
1503978135.5,286047004.2,N
1503978155.3,286047004.0,N
1503978175.2,286047001.7,N
1503978195.0,286047001.9,N
1503978195.9,286047001.9,N
1503978215.7,286047001.4,N
1503978235.6,286047004.0,N
1503978255.4,286047005.0,N
1503978275.2,286047003.8,N
1503978295.1,286047001.9,N
1503978296.0,286047001.9,N
1503978315.8,286047002.1,N
1503978335.6,286047003.3,N
1503978355.5,286047003.0,N
1503978375.3,286047004.8,P
1503978395.1,286047007.6,P
1503978415.9,286047003.4,N
1503978435.7,286047005.3,P
1503978455.5,286047000.9,P
1503978475.4,286046999.5,N
1503978495.2,286046997.0,N
1503978515.0,286046996.9,N
1503978515.9,286046996.9,N
1503978535.8,286046999.2,N
1503978555.6,286046999.5,N
1503978575.4,286046999.4,N
1503978595.3,286046998.5,N
1503978615.1,286046999.1,N
1503978616.0,286046999.1,N
1503978635.8,286047002.7,N
1503978655.7,286047000.7,N
1503978675.5,286047001.9,N
1503978695.3,286047003.9,N
1503978715.1,286047001.3,N
1503978735.9,286047007.3,N
1503978755.7,286047004.8,N
1503978775.5,286047005.8,N
1503978795.4,286047003.3,N
1503978815.2,286047005.6,N
1503978835.0,286047003.7,N
1503978835.9,286047003.7,N
1503978855.8,286047004.0,N
1503978875.6,286047004.0,N
1503978895.4,286047003.4,N
1503978915.3,286047003.4,N
1503978935.1,286047004.7,N
1503978936.0,286047004.7,N
1503978955.8,286047004.2,N
1503978975.7,286047005.6,N
1503978995.5,286047007.0,N
1503979015.3,286047004.6,N
1503979035.1,286047005.3,N
1503979055.9,286047005.4,N
1503979075.7,286047006.1,N
1503979095.5,286047012.8,P
1503979115.4,286047012.1,N
1503979135.2,286047014.0,P
1503979155.0,286047008.9,N
1503979155.9,286047008.9,N
1503979175.8,286047004.9,N
1503979195.6,286047003.1,N
